DELTA 1 DEB, 5443

Orbit data source: Space-Track

DELTA 1 DEB, 5443 is space debris in SSO originally from a launch on Fri, 10 Nov 1967 UTC launched from the Air Force Western Test Range (AFWTR). Debris objects in space refer to the collection of defunct objects orbiting the Earth. Examples of debris include non-operational satellites, rocket bodies, and fragments generated from explosions, collisions, or faulty payload assembly.

Loading next visibility...
Identifier
5443, 1967-114E
Orbit
SSO
Country
Flag of USUS
Related business
Manufacturer
Unknown
Mission
Spacecraft
Bus & Motor
Unknown
Mass
Unknown
Launch date (UTC)
1967-11-10 (58 years ago)
Launch vehicle
Unknown
Launch site
Air Force Western Test Range (AFWTR)
Object type
Payload
Rocket body
Debris
Shape & HBR
Unknown shape, 0.1 m
Radar Cross Section
Small (<0.1 m²)

Expand to show TLE details & history
Last TLE update: 21 hours ago

TLE from 21 hours ago
0 DELTA 1 DEB
1 05443U 67114E   25310.83209282 -.00000027  00000-0  95481-4 0  9991
2 05443 101.3810 267.9978 0062384 103.1646 286.6896 12.56802220659322
Epoch: 2025-11-06T19:58Z
TLE epoch observation values (Epoch: 2025-11-06T19:58:12.819Z)
Latitude
28.58469°
Longitude
-84.10589°
Altitude
1,425.711 km
Speed
7.157 km/s
True Right ascension
17h 26m 55s
True Declination
28° 27' 10"
Sunlit
Object was in daylight at epoch
Visualization orbit readout
Latitude
Unknown
Longitude
Unknown
Altitude
Unknown
Speed
Unknown
Apparent Right ascension
Unknown
Apparent Declination
Unknown
Sunlit
N/A
Visualization observer readout
Local Sidereal Time
13:16:32
Azimuth
Unknown
Elevation
Unknown
Doppler factor
Unknown
Orbital elements
Apogee altitude
1,482.421 km
Perigee altitude
1,384.955 km
Semi-major axis
7,811.825 km
Eccentricity
0.00624
Inclination
101.381°
RAAN
267.9978°
Arg. of periapsis
103.1646°
True anomaly
286.00333°
Mean anomaly
286.6896°
Eccentric anomaly
286.34661°
Mean motion
3.14351 °/min
Orbital period
114.52 mins
BSTAR
0.000095481
Loading maneuver chart data...
Computing Atmospheric mass density...
Loading historical data...
Loading historical data...
Loading historical data...
Loading historical data...
Loading historical data...
Loading historical data...
Loading historical data...
Other satellites on launch #114 in the year 1967 (1967-11-10 UTC)

Documentation

Showing up to 5 results
|